Theta_e
342 339 330 323 310 305 302 309 317 315 317 324 326 325 321 324 322 314 338 350 354 353 356 360 364 360 361 366 364 362 362 362 361 361 360 360 361 361 361 361 361 360 357 358 358 358 358 358 357
332 333 321 312 302 296 300 309 313 318 324 327 326 326 323 320 329 333 337 343 347 352 353 353 363 363 362 363 364 363 362 361 361 361 361 360 361 360 360 360 360 358 357 357 358 357 357 357 357
327 326 315 304 297 296 302 315 317 320 326 323 322 327 325 322 331 335 341 346 349 351 353 356 362 364 364 364 363 363 362 362 360 360 360 360 360 360 360 360 360 358 355 355 356 358 360 359 359
320 315 308 301 297 300 307 313 319 319 319 326 325 321 328 333 334 338 336 336 343 351 353 356 361 362 363 362 361 362 362 362 361 360 360 360 359 360 359 360 361 360 356 355 356 359 359 359 360
314 307 299 296 296 300 314 315 319 315 317 319 324 320 322 331 335 332 333 336 342 346 347 354 359 359 360 361 361 361 363 362 362 361 360 360 361 360 359 359 359 359 359 358 358 360 360 358 358
307 302 295 291 295 312 317 321 320 318 319 321 321 321 322 333 332 336 340 340 344 334 333 336 346 353 357 358 359 360 360 360 360 360 360 358 358 358 358 358 358 359 359 360 361 361 359 358 357
304 298 294 292 299 311 317 322 318 318 320 321 325 319 323 329 335 336 337 340 338 331 329 329 331 341 350 356 355 356 358 355 353 355 356 357 357 356 358 358 358 358 359 360 360 361 360 359 358
308 297 291 294 306 309 319 320 319 322 322 332 332 320 320 330 334 336 338 336 335 334 334 333 335 337 337 346 354 351 350 347 344 343 343 346 353 355 356 357 357 358 357 358 359 359 359 357 358
301 294 291 296 307 312 316 314 320 328 324 329 333 332 335 337 338 334 332 332 331 337 337 334 339 337 333 330 337 337 344 344 343 341 339 337 340 340 342 348 354 356 357 356 356 356 357 357 356
298 294 298 303 312 313 317 315 318 320 323 324 327 330 331 332 330 329 329 327 328 330 332 332 335 333 335 332 329 333 338 337 337 334 330 329 330 337 341 343 347 351 354 355 355 354 355 356 349
297 304 318 319 317 319 318 316 321 321 318 325 322 325 328 327 328 329 329 326 322 325 329 330 332 336 337 335 334 335 336 336 332 333 331 329 335 335 336 337 340 338 341 335 335 334 337 343 346
298 316 322 323 325 323 320 323 321 321 322 330 330 330 325 323 324 328 327 326 326 329 329 331 335 336 335 334 332 332 330 332 332 333 332 328 331 333 335 338 338 337 334 330 337 339 339 339 341
297 310 324 322 321 321 322 319 318 318 324 326 325 324 323 323 323 323 324 324 324 323 320 321 326 330 335 332 335 330 325 326 328 326 324 325 325 326 331 332 335 336 336 336 336 337 336 336 337
308 322 320 318 319 320 317 317 318 320 323 321 322 322 322 322 321 320 321 319 319 320 319 320 320 320 326 327 320 319 318 320 323 321 322 323 322 321 323 324 325 326 331 333 332 335 334 335 336
318 313 315 313 311 315 317 312 315 321 322 320 321 321 322 321 321 319 320 318 318 319 319 319 319 319 316 314 315 317 317 318 319 320 320 321 320 319 320 319 320 319 322 327 334 332 333 335 336
298 300 303 311 312 313 313 306 319 323 319 317 319 320 320 320 321 321 321 320 320 320 319 320 322 318 317 315 315 318 317 316 317 318 316 316 315 317 313 315 315 315 317 320 323 328 330 331 331
294 291 297 307 314 313 312 310 315 322 318 316 317 318 319 319 320 321 322 322 323 322 320 319 318 317 316 315 315 316 316 316 316 314 311 312 312 313 310 310 310 311 313 314 317 320 325 326 328
292 292 296 305 310 311 310 310 315 319 318 316 317 317 318 319 320 322 323 322 321 321 320 321 321 318 317 317 315 316 315 315 314 311 309 309 309 310 308 309 310 311 310 311 312 315 320 321 322
297 295 299 307 313 311 308 311 314 318 318 317 318 316 317 318 320 323 324 323 322 320 321 319 317 315 316 315 314 313 311 310 310 310 310 308 307 308 307 308 310 311 310 311 313 314 315 317 319
298 305 305 309 313 310 308 307 311 316 318 319 317 315 317 319 319 323 324 325 322 320 316 315 315 314 315 314 312 312 311 309 308 307 308 307 307 306 306 308 308 309 309 311 312 313 313 318 317
297 303 306 305 309 310 306 303 307 311 318 321 321 319 320 320 318 319 322 316 316 314 314 314 314 313 312 313 311 309 308 306 304 305 305 305 306 306 305 305 307 307 309 308 309 312 313 312 315
294 307 311 308 304 297 305 294 301 308 310 315 319 320 319 317 314 314 311 311 313 313 315 314 313 312 311 310 307 304 303 300 301 301 303 303 305 304 305 303 307 307 306 306 308 310 310 312 313
299 312 310 309 298 302 303 297 299 307 305 307 314 320 316 312 310 310 310 311 313 313 313 313 311 310 308 306 304 303 301 302 303 302 301 301 301 303 303 302 304 305 304 305 306 307 306 307 308
307 304 299 298 298 294 299 299 299 303 307 309 315 319 312 309 309 310 310 310 310 310 310 309 308 307 307 306 304 300 299 299 300 300 299 300 300 300 302 303 301 303 303 302 304 305 306 306 306
300 294 288 288 293 292 302 301 301 312 312 312 313 310 308 308 308 308 307 307 307 306 306 307 306 304 305 304 302 301 299 299 298 298 297 298 299 299 299 302 301 301 302 302 303 303 304 303 304
298 296 291 286 290 293 303 297 301 316 316 307 306 306 307 305 305 306 307 306 304 303 304 305 304 303 303 302 301 300 300 299 298 297 299 300 300 300 301 301 302 301 301 301 301 301 302 303 303
298 295 298 295 296 293 296 302 310 315 305 304 304 304 303 304 305 306 306 304 303 302 302 304 303 302 302 301 301 300 299 299 301 302 301 301 301 301 302 301 300 301 300 301 301 300 301 302 301
301 303 294 292 290 287 295 299 299 307 301 302 301 301 302 303 303 305 305 303 302 302 303 304 303 301 299 299 299 300 299 302 304 303 301 301 298 298 297 298 299 300 299 300 300 301 300 300 301
299 297 295 294 296 291 290 294 310 306 302 300 303 301 303 301 303 305 304 302 301 301 302 301 301 300 300 299 299 299 301 303 304 303 303 302 300 299 298 298 298 298 299 299 299 299 302 299 300
300 298 295 291 290 294 293 292 302 301 302 303 301 303 303 303 304 304 302 300 300 301 301 300 300 300 300 300 299 302 304 303 303 303 303 304 303 302 300 300 300 299 297 298 299 300 301 300 299
Wind_Speed
5 5 2 3 5 5 3 5 2 10 8 11 14 15 17 12 8 7 6 5 7 5 5 4 7 6 6 10 11 11 11 12 14 14 12 11 12 12 11 11 10 10 11 12 13 13 12 9 8
4 3 3 2 6 4 6 4 7 12 8 7 13 8 16 10 7 4 3 1 7 5 3 2 6 5 7 9 10 9 9 11 13 13 13 13 12 12 13 12 11 12 13 13 13 13 12 10 9
3 1 4 5 3 4 3 9 12 5 8 2 6 11 5 2 1 7 10 8 10 7 4 2 6 5 6 7 9 10 9 8 8 10 11 11 11 12 13 13 13 13 13 13 13 12 11 11 11
2 4 5 5 2 4 2 8 7 3 8 9 13 12 5 3 3 9 11 8 14 7 6 5 6 4 3 4 3 5 9 11 11 11 11 10 10 9 9 11 11 11 12 12 12 11 11 11 11
4 3 5 3 3 4 5 6 9 3 4 2 2 7 4 2 4 2 13 9 13 7 5 5 7 6 7 8 6 4 2 2 3 3 3 6 7 8 8 9 9 10 11 12 12 12 12 12 11
5 3 5 2 6 5 5 12 11 3 8 13 12 7 4 2 3 9 7 6 10 8 7 6 9 10 9 8 9 6 5 4 6 6 5 7 8 8 9 9 10 11 12 11 12 12 11 11 10
5 4 1 2 2 6 4 5 5 2 3 11 8 6 3 4 4 7 5 9 8 7 6 6 4 5 3 4 6 10 12 16 16 15 12 10 11 10 9 10 12 12 12 12 12 12 12 11 11
6 5 3 5 3 2 3 4 4 7 6 6 4 5 5 3 3 2 4 7 6 5 4 5 5 5 7 6 12 10 11 10 10 13 16 16 16 12 11 11 11 14 14 14 14 15 15 14 14
5 6 2 4 7 5 1 4 5 4 7 11 7 8 9 9 8 2 3 5 6 5 4 4 5 6 6 4 7 10 10 10 11 12 15 11 4 5 9 10 14 16 15 15 15 15 15 14 14
5 5 4 3 5 7 6 2 6 6 12 14 16 15 12 10 8 5 6 8 6 5 2 5 8 6 6 5 3 3 7 4 7 6 6 4 6 5 9 9 12 15 17 16 16 17 17 15 7
4 6 7 3 4 10 8 5 3 12 7 3 10 12 12 12 11 15 12 7 6 6 8 7 5 6 6 5 4 5 6 5 3 6 7 7 6 6 5 4 5 3 5 3 3 6 3 6 6
5 10 8 7 9 12 13 12 9 7 5 7 7 9 16 15 10 9 9 8 7 7 8 9 9 8 10 8 8 8 8 8 7 8 7 4 4 6 6 4 4 3 2 2 3 2 4 5 7
2 7 13 15 8 14 19 15 13 13 10 9 12 15 17 14 13 10 8 7 7 8 8 10 10 9 7 8 5 6 5 5 5 6 7 6 6 7 8 8 6 4 4 4 3 3 5 4 3
4 19 15 8 9 14 28 14 5 6 7 14 14 13 14 15 13 10 9 6 5 5 5 6 8 8 6 3 5 4 4 5 4 5 5 7 5 6 6 7 7 8 8 6 5 4 5 5 2
15 13 6 2 1 17 12 9 5 8 8 13 15 12 13 13 10 9 7 7 5 5 4 7 6 5 2 1 3 3 4 4 4 5 9 10 8 7 7 5 6 6 8 9 7 5 4 3 2
7 7 6 4 6 5 5 5 5 5 13 11 11 11 11 7 10 8 6 7 5 5 8 7 5 6 7 7 6 6 7 6 6 7 7 11 11 11 8 6 7 8 6 6 6 8 4 4 4
6 6 4 4 3 1 6 10 5 5 9 9 8 8 10 6 4 6 6 6 5 6 7 6 6 6 7 6 5 5 6 7 6 6 7 9 10 11 8 7 7 9 8 6 5 6 6 4 4
4 5 2 6 3 2 14 12 8 5 3 5 6 6 8 7 7 7 7 5 5 7 7 7 6 8 7 5 5 4 5 6 6 5 6 9 7 10 7 7 9 7 8 8 7 8 6 5 6
6 0 4 1 6 7 9 14 6 2 7 5 2 6 6 7 4 6 5 4 7 7 9 8 9 8 6 4 4 4 4 5 4 5 7 9 9 10 7 7 9 9 8 8 8 8 9 5 2
6 6 2 3 9 7 2 8 5 5 5 2 5 7 6 3 3 5 7 3 8 8 8 9 8 8 5 4 4 3 3 3 2 4 6 6 7 9 10 10 8 9 9 9 9 9 7 4 2
6 9 11 8 7 7 4 6 3 5 4 2 5 7 5 5 5 8 11 10 8 9 7 8 7 7 7 8 4 5 4 3 4 5 5 6 6 7 10 11 9 10 8 7 9 8 10 6 5
2 13 15 17 7 6 2 4 4 3 2 2 5 6 6 8 8 11 12 10 9 7 6 6 8 8 8 8 6 6 4 4 3 3 4 6 7 6 8 10 10 9 8 8 8 8 8 7 5
8 18 18 10 8 7 2 6 2 3 2 4 3 6 7 9 12 13 11 9 8 6 6 7 7 7 7 7 6 5 5 4 5 6 8 8 6 6 9 9 10 9 8 9 10 10 10 7 5
16 9 5 4 5 6 3 4 3 2 6 4 3 5 12 14 11 11 7 7 7 6 6 6 6 5 6 6 6 6 6 6 6 8 7 6 7 6 9 8 8 8 9 10 8 9 10 9 6
7 7 3 3 6 4 3 6 4 6 5 5 7 10 12 10 10 9 8 7 6 7 5 6 5 5 5 6 6 6 6 6 7 7 5 7 7 7 9 9 9 8 9 9 8 8 8 9 8
3 8 7 4 4 2 6 3 3 3 8 15 14 13 12 9 7 7 7 6 6 6 6 6 6 5 6 6 7 6 6 4 4 5 6 7 7 8 9 9 8 9 9 9 7 6 6 8 7
3 4 5 9 3 5 2 0 2 6 12 11 13 12 9 7 7 8 6 6 7 6 6 5 6 6 6 6 5 6 5 6 5 7 7 7 9 8 9 9 9 9 9 9 9 6 8 7 6
6 6 4 4 6 3 4 4 5 8 11 11 10 9 7 7 7 6 7 6 5 6 5 6 5 4 5 5 5 3 5 6 6 6 8 9 7 8 8 9 8 9 10 10 9 7 7 8 7
4 3 8 8 4 6 5 5 7 11 14 13 11 7 9 7 7 6 6 5 6 5 5 5 5 4 6 5 5 6 5 6 6 6 6 7 6 7 8 8 9 9 9 9 8 8 8 7 8
4 4 5 7 2 3 4 5 6 12 13 13 9 8 8 7 7 6 6 6 5 5 4 4 4 6 5 5 5 6 6 7 6 7 7 7 8 8 7 9 9 9 8 8 8 8 8 7 8
Wind_Direction
138 127 114 57 45 59 296 276 320 101 67 47 74 96 103 43 45 119 284 357 58 39 18 40 40 45 75 89 84 86 94 103 113 119 124 123 122 122 122 124 128 138 151 159 164 167 168 165 161
152 139 45 82 79 30 305 299 50 90 108 105 57 27 48 54 30 101 253 161 66 10 353 77 91 97 118 119 118 124 130 135 137 139 141 142 142 144 145 145 148 153 160 166 171 173 173 176 177
172 84 86 91 109 123 326 61 78 59 35 88 105 50 49 2 299 199 225 202 102 101 328 323 97 84 108 134 147 150 142 138 146 150 152 154 157 160 163 162 163 167 171 176 179 182 183 185 183
119 14 34 83 228 257 196 115 154 160 53 42 120 78 89 289 218 208 238 123 72 57 19 2 37 65 91 115 134 158 155 165 173 178 175 173 175 180 181 178 176 177 181 184 188 193 195 193 190
42 64 50 353 287 308 349 61 133 90 76 78 165 108 87 336 179 35 335 3 79 62 22 2 23 42 44 30 21 9 52 14 356 321 237 208 200 197 201 202 201 198 199 200 200 200 203 203 201
39 85 50 352 337 8 28 55 60 72 144 121 87 103 182 101 225 303 324 62 79 51 25 18 21 35 27 32 29 26 34 25 346 337 306 277 257 238 228 225 219 218 221 219 216 213 213 214 217
108 75 160 327 355 34 25 44 51 277 83 50 127 101 137 218 213 267 44 45 69 86 37 339 331 14 97 112 50 31 32 35 26 12 356 330 306 287 268 259 246 237 231 232 232 228 224 222 224
102 86 29 353 102 175 298 84 351 9 33 304 168 111 146 129 140 355 61 98 69 46 35 15 352 308 348 34 71 53 46 42 32 13 353 340 324 315 303 276 264 257 248 239 236 238 235 230 227
116 60 26 177 147 188 191 98 12 39 53 49 55 72 99 135 160 180 0 33 37 35 19 318 326 3 16 5 45 14 28 6 5 358 341 334 343 332 315 293 284 275 264 260 254 249 247 247 245
100 97 224 209 148 140 102 86 122 83 58 67 79 73 80 77 111 138 70 56 33 35 44 17 20 344 351 346 87 40 26 353 357 347 343 336 303 311 320 300 300 287 268 253 253 250 244 244 239
124 154 140 58 149 139 115 81 70 112 63 65 98 87 68 57 67 60 45 49 51 348 12 16 347 336 348 14 24 16 8 354 356 4 345 334 318 304 304 290 265 298 305 1 301 293 298 245 223
96 130 113 114 126 136 133 132 99 90 135 131 106 96 80 70 66 65 62 40 27 13 351 353 357 4 9 17 15 2 8 8 12 6 346 322 307 313 301 300 302 307 242 216 240 251 249 251 235
110 104 122 105 139 120 112 98 96 99 111 102 94 83 91 92 87 80 83 61 52 50 33 29 31 9 3 14 8 17 10 37 59 38 20 18 9 358 352 349 335 327 311 297 263 250 236 226 274
49 114 105 98 139 108 111 135 116 130 133 114 104 105 106 101 100 92 82 94 92 103 87 73 53 53 51 13 7 8 10 4 33 24 10 15 22 8 6 358 355 355 342 303 296 274 271 297 290
127 97 98 180 167 113 86 28 87 133 131 129 121 116 104 111 113 113 150 127 105 41 43 83 71 64 83 53 23 37 20 28 35 33 20 6 11 3 357 349 347 346 336 331 302 275 274 267 270
101 80 139 223 223 186 107 106 112 90 141 134 128 122 122 131 133 142 118 118 127 112 76 53 55 31 14 23 18 19 19 27 29 28 19 2 2 5 357 346 343 334 331 326 332 321 286 267 237
20 169 161 178 354 106 85 145 131 28 144 139 137 135 134 135 144 131 150 128 121 102 97 77 52 35 9 14 27 37 35 30 24 24 15 3 359 359 359 349 339 336 328 326 325 313 303 287 267
168 99 220 173 214 106 100 91 92 41 104 112 145 165 145 160 168 161 144 121 113 81 45 49 42 27 1 5 1 15 41 29 26 17 14 1 353 356 351 347 348 331 335 331 329 316 304 288 278
105 151 153 249 30 72 88 96 63 58 99 106 188 193 184 173 183 177 103 116 89 46 31 56 44 15 17 356 353 353 11 15 5 355 354 358 355 353 346 335 340 338 331 321 321 315 311 306 291
152 117 86 37 19 86 180 104 135 114 99 161 179 191 169 150 137 104 114 52 56 64 58 47 39 26 15 14 357 9 353 4 344 340 340 341 347 349 350 343 340 335 327 328 329 319 309 279 262
204 165 184 151 109 57 131 29 100 83 92 74 66 154 107 105 99 94 92 83 75 61 58 58 43 27 21 19 4 354 354 348 350 354 350 333 339 351 345 339 342 336 336 330 328 326 312 286 289
256 177 156 146 126 153 82 181 334 11 147 78 89 89 93 120 66 80 93 82 79 68 67 61 45 31 26 12 13 12 2 336 309 305 322 335 342 341 354 341 340 340 337 340 335 339 335 332 288
211 151 159 142 93 102 330 77 293 348 121 194 165 120 97 68 97 101 97 98 90 81 67 58 54 41 25 24 17 6 351 323 315 320 336 328 344 341 351 352 342 342 347 343 340 348 356 347 336
128 104 60 41 92 58 291 134 286 220 219 170 145 118 101 103 99 91 89 90 88 74 66 63 71 46 28 23 17 15 351 331 336 339 341 325 359 346 352 354 345 351 353 346 351 348 354 352 352
73 62 29 23 45 174 272 68 231 292 217 166 148 103 119 108 102 99 87 79 76 66 83 94 68 42 12 14 3 2 359 352 341 335 325 330 347 346 352 353 356 354 355 355 350 352 358 356 357
79 134 149 186 156 215 5 55 283 341 59 89 96 109 110 106 102 99 94 91 92 77 64 78 65 40 21 11 360 356 3 342 326 310 324 335 340 338 345 346 349 351 349 351 357 3 356 358 2
188 67 157 108 55 78 177 171 17 96 98 94 107 109 107 108 109 99 95 79 67 63 56 76 58 30 14 5 354 358 349 342 316 334 343 347 346 341 344 346 347 347 350 352 350 351 358 358 357
124 154 77 29 131 123 220 200 196 172 136 136 126 118 113 99 97 100 77 75 66 55 57 66 61 40 19 0 352 355 337 327 335 337 351 352 336 342 343 345 345 347 351 351 348 349 352 0 11
30 61 60 107 100 146 158 251 187 169 161 145 138 129 128 122 107 105 101 80 75 66 65 54 47 38 25 358 348 357 338 333 335 349 348 337 333 343 348 345 345 351 349 352 351 344 350 359 359
95 92 99 115 209 69 119 265 341 134 141 141 140 134 126 121 120 113 104 99 79 74 64 53 40 32 10 346 1 350 339 341 347 351 349 341 333 335 338 350 353 348 348 343 350 349 347 351 357